Flag for Poland Weather past 2 weeks in Wroclaw, Poland

Now
41 °F

Clear.


Feels Like: 38 °F
Forecast: 36 / 63 °F
Wind: 5 mph from South

Location: Wroclaw Ii


UV Index: 3 (Moderate)

Visibility: 10 mi


Pressure: 29.98 "Hg

Humidity: 70%

Dew point: 32 °F

Location of WroclawLocation

Historic Weather in Wroclaw

°F

Wroclaw temperature yesterday

Maximum temperature yesterday: 55 °F (at 2:00 PM)
Minimum temperature yesterday: 30 °F (at 3:00 AM)
Average temperature yesterday: 44 °F

Past Weeks' High & Low Weather Summary

 TemperatureHumidityPressure
High73 °F (Apr 8, 2:00 PM)100% (Apr 11, 4:00 AM)30.39 "Hg (Apr 11, 4:00 AM)
Low30 °F (Apr 17, 3:00 AM)31% (Apr 3, 4:00 PM)29.68 "Hg (Apr 3, 2:30 PM)
Average50 °F71%30.01 "Hg
* Reported Midnight between Apr 2 and Apr 3 — Midnight between Apr 17 and Apr 18, Wroclaw, Weather by CustomWeather, © 2014

Note: Actual official high and low records may vary slightly from our data, if they occured in-between our weather recording intervals... More about our weather records

Advertising

Historic Weather Conditions — Data for Previous 24 hours

 ConditionsComfort  
Time TempWeatherWind HumidityBarometerVisibility
12:00 AM
Apr 18
43 °FClear.3 mph71%29.98 "Hg10 mi
11:30 PM
Apr 17
45 °FPassing clouds.6 mph66%30.01 "HgN/A
11:00 PM45 °FClear.7 mph66%30.01 "Hg10 mi
10:30 PM45 °FPassing clouds.6 mph66%30.04 "HgN/A
10:00 PM46 °FClear.5 mph62%30.04 "Hg10 mi
9:30 PM46 °FClear.5 mph62%30.04 "Hg10 mi
9:00 PM46 °FClear.5 mph62%30.04 "Hg10 mi
8:30 PM48 °FSunny.3 mph58%30.07 "Hg10 mi
8:00 PM50 °FSunny.3 mph54%30.07 "Hg10 mi
7:00 PM54 °FPassing clouds.3 mph44%30.09 "HgN/A
6:30 PM54 °FSunny.6 mph44%30.09 "Hg10 mi
6:00 PM55 °FPassing clouds.7 mph38%30.12 "HgN/A
5:30 PM55 °FPassing clouds.6 mph38%30.12 "HgN/A
5:00 PM55 °FPassing clouds.6 mph38%30.15 "HgN/A
4:30 PM55 °FPassing clouds.7 mph41%30.15 "HgN/A
4:00 PM55 °FPassing clouds.7 mph41%30.18 "HgN/A
3:30 PM55 °FPassing clouds.6 mph38%30.18 "HgN/A
3:00 PM55 °FSunny.3 mph41%30.21 "Hg10 mi
2:30 PM55 °FSunny.5 mph36%30.21 "Hg10 mi
2:00 PM55 °FSunny.3 mph38%30.24 "Hg10 mi
1:30 PM54 °FSunny.5 mph35%30.27 "Hg10 mi
1:00 PM54 °FPassing clouds.7 mph38%30.27 "HgN/A
12:30 PM52 °FPassing clouds.6 mph41%30.30 "HgN/A
12:00 PM52 °FSunny.2 mph35%30.30 "Hg10 mi
11:30 AM50 °FSunny.3 mph37%30.33 "Hg10 mi
11:00 AM50 °FPassing clouds.3 mph40%30.33 "HgN/A
10:30 AM50 °FPassing clouds.5 mph37%30.36 "HgN/A
10:00 AM48 °FSunny.1 mph50%30.36 "Hg10 mi
9:30 AM48 °FSunny.1 mph50%30.36 "Hg10 mi
9:00 AM45 °FSunny.1 mph61%30.36 "Hg10 mi
8:30 AM41 °FPassing clouds.3 mph76%30.36 "HgN/A
8:00 AM37 °FSunny.3 mph87%30.36 "Hg10 mi
7:30 AM36 °FSunny.1 mph93%30.36 "Hg10 mi
7:00 AM32 °FSunny.1 mph100%30.36 "Hg10 mi
6:30 AM30 °FClear.1 mph93%30.36 "Hg10 mi
6:00 AM32 °FFog.1 mph80%30.36 "HgN/A
5:00 AM30 °FClear.2 mph93%30.39 "Hg10 mi
4:30 AM30 °FClear.2 mph93%30.39 "Hg10 mi
4:00 AM30 °FClear.2 mph93%30.39 "Hg10 mi
3:30 AM30 °FClear.1 mph93%30.39 "Hg10 mi
3:00 AM30 °FClear.1 mph93%30.39 "Hg10 mi
2:30 AM32 °FClear.1 mph87%30.39 "Hg10 mi
2:00 AM32 °FClear.1 mph87%30.39 "Hg10 mi
1:30 AM34 °FClear.2 mph87%30.39 "Hg10 mi
1:00 AM34 °FClear.1 mph81%30.39 "Hg10 mi
12:30 AM37 °FClear.2 mph75%30.39 "Hg10 mi
12:00 AM37 °FClear.3 mph70%30.39 "Hg10 mi
Weather by CustomWeather, © 2014

See weather overview